| time (UTC) | temp F | wind direction | speed MPH | gust MPH | rain 1hr in | rain 24hr in | rain mn in | humidity % | barometer mb |
| 20260831022010 | 74 | 113 | 0.0 | 0.0 | 0.00 | 0.00 | 0.00 | 83 | 1020.7 |
| 20260831021524 | 74 | 113 | 0.0 | 0.0 | 0.00 | 0.00 | 0.00 | 83 | 1020.6 |
| 20260831021002 | 74 | 113 | 0.0 | 3.0 | 0.00 | 0.00 | 0.00 | 83 | 1020.5 |
| 20260831020506 | 75 | 113 | 0.0 | 3.0 | 0.00 | 0.00 | 0.00 | 83 | 1020.5 |
| 20260831020003 | 75 | 113 | 1.0 | 3.0 | 0.00 | 0.00 | 0.00 | 83 | 1020.5 |
| 20260831015503 | 75 | 113 | 1.0 | 4.0 | 0.00 | 0.00 | 0.00 | 82 | 1020.4 |
| 20260831015007 | 75 | 113 | 0.0 | 4.0 | 0.00 | 0.00 | 0.00 | 82 | 1020.3 |
| 20260831014506 | 76 | 115 | 3.0 | 4.0 | 0.00 | 0.00 | 0.00 | 81 | 1020.2 |
| 20260831014007 | 76 | 106 | 2.0 | 6.0 | 0.00 | 0.00 | 0.00 | 81 | 1020.2 |
| 20260831013508 | 76 | 106 | 2.0 | 6.0 | 0.00 | 0.00 | 0.00 | 80 | 1020.1 |
| 20260831013013 | 76 | 108 | 3.0 | 6.0 | 0.00 | 0.00 | 0.00 | 80 | 1020.1 |
| 20260831012508 | 76 | 108 | 3.0 | 4.0 | 0.00 | 0.00 | 0.00 | 80 | 1020.1 |
| 20260831012008 | 77 | 106 | 0.0 | 6.0 | 0.00 | 0.00 | 0.00 | 79 | 1020.2 |
| 20260831011529 | 77 | 106 | 2.0 | 6.0 | 0.00 | 0.00 | 0.00 | 78 | 1020.1 |
| 20260831011013 | 78 | 117 | 2.0 | 4.0 | 0.00 | 0.00 | 0.00 | 77 | 1019.9 |
| 20260831010511 | 78 | 84 | 1.0 | 2.0 | 0.00 | 0.00 | 0.00 | 77 | 1019.9 |
| 20260831010026 | 78 | 84 | 1.0 | 2.0 | 0.00 | 0.00 | 0.00 | 76 | 1019.9 |
| 20260831005503 | 78 | 84 | 0.0 | 3.0 | 0.00 | 0.00 | 0.00 | 76 | 1019.9 |
| 20260831005004 | 79 | 84 | 0.0 | 3.0 | 0.00 | 0.00 | 0.00 | 76 | 1019.9 |
| 20260831004504 | 79 | 11 | 0.0 | 1.0 | 0.00 | 0.00 | 0.00 | 75 | 1019.8 |
| 20260831004003 | 79 | 11 | 0.0 | 2.0 | 0.00 | 0.00 | 0.00 | 74 | 1019.8 |
| 20260831003504 | 80 | 11 | 1.0 | 2.0 | 0.00 | 0.00 | 0.00 | 74 | 1019.8 |
| 20260831003016 | 81 | 11 | 1.0 | 2.0 | 0.00 | 0.00 | 0.00 | 72 | 1019.7 |
| 20260831002507 | 82 | 11 | 0.0 | 1.0 | 0.00 | 0.00 | 0.00 | 70 | 1019.7 |
| 20260831002007 | 82 | 11 | 0.0 | 1.0 | 0.00 | 0.00 | 0.00 | 69 | 1019.7 |
| 20260831001516 | 83 | 11 | 0.0 | 2.0 | 0.00 | 0.00 | 0.00 | 68 | 1019.7 |
| 20260831001010 | 83 | 11 | 0.0 | 2.0 | 0.00 | 0.00 | 0.00 | 67 | 1019.7 |
| 20260831000509 | 84 | 11 | 0.0 | 1.0 | 0.00 | 0.00 | 0.00 | 66 | 1019.6 |
| 20260831000023 | 84 | 160 | 0.0 | 1.0 | 0.00 | 0.00 | 0.00 | 65 | 1019.6 |
| 20260830235512 | 85 | 160 | 0.0 | 2.0 | 0.00 | 0.00 | 0.00 | 64 | 1019.6 |
| 20260830235017 | 85 | 160 | 0.0 | 2.0 | 0.00 | 0.00 | 0.00 | 63 | 1019.6 |
| 20260830234530 | 86 | 160 | 0.0 | 2.0 | 0.00 | 0.00 | 0.00 | 62 | 1019.5 |
| 20260830234019 | 86 | 160 | 0.0 | 2.0 | 0.00 | 0.00 | 0.00 | 62 | 1019.5 |
| 20260830233506 | 87 | 169 | 0.0 | 3.0 | 0.00 | 0.00 | 0.00 | 60 | 1019.5 |
| 20260830233014 | 88 | 167 | 0.0 | 3.0 | 0.00 | 0.00 | 0.00 | 61 | 1019.6 |
| 20260830232505 | 88 | 208 | 0.0 | 4.0 | 0.00 | 0.00 | 0.00 | 61 | 1019.5 |
| 20260830232004 | 88 | 208 | 1.0 | 4.0 | 0.00 | 0.00 | 0.00 | 61 | 1019.5 |
| 20260830231512 | 88 | 208 | 1.0 | 4.0 | 0.00 | 0.00 | 0.00 | 59 | 1019.5 |
| 20260830231008 | 89 | 229 | 1.0 | 4.0 | 0.00 | 0.00 | 0.00 | 58 | 1019.4 |
| 20260830230507 | 89 | 229 | 0.0 | 3.0 | 0.00 | 0.00 | 0.00 | 58 | 1019.4 |
| 20260830230024 | 89 | 229 | 1.0 | 3.0 | 0.00 | 0.00 | 0.00 | 59 | 1019.4 |
| 20260830225511 | 89 | 229 | 0.0 | 3.0 | 0.00 | 0.00 | 0.00 | 54 | 1019.5 |
| 20260830225017 | 90 | 209 | 1.0 | 3.0 | 0.00 | 0.00 | 0.00 | 57 | 1019.5 |
| 20260830224525 | 90 | 210 | 1.0 | 4.0 | 0.00 | 0.00 | 0.00 | 56 | 1019.5 |
| 20260830224013 | 90 | 210 | 1.0 | 7.0 | 0.00 | 0.00 | 0.00 | 55 | 1019.4 |
| 20260830223513 | 89 | 200 | 2.0 | 7.0 | 0.00 | 0.00 | 0.00 | 57 | 1019.4 |
| 20260830223031 | 90 | 153 | 2.0 | 6.0 | 0.00 | 0.00 | 0.00 | 57 | 1019.4 |
| 20260830222514 | 90 | 211 | 2.0 | 7.0 | 0.00 | 0.00 | 0.00 | 53 | 1019.4 |
| 20260830222016 | 90 | 211 | 3.0 | 7.0 | 0.00 | 0.00 | 0.00 | 55 | 1019.3 |
| 20260830221510 | 90 | 218 | 4.0 | 7.0 | 0.00 | 0.00 | 0.00 | 52 | 1019.4 |
| 20260830221006 | 90 | 235 | 3.0 | 5.0 | 0.00 | 0.00 | 0.00 | 54 | 1019.4 |
| 20260830220505 | 90 | 226 | 1.0 | 6.0 | 0.00 | 0.00 | 0.00 | 58 | 1019.3 |
| 20260830220008 | 90 | 226 | 4.0 | 8.0 | 0.00 | 0.00 | 0.00 | 54 | 1019.4 |
| 20260830215502 | 90 | 207 | 3.0 | 8.0 | 0.00 | 0.00 | 0.00 | 55 | 1019.4 |
| 20260830215003 | 91 | 217 | 2.0 | 8.0 | 0.00 | 0.00 | 0.00 | 57 | 1019.4 |
| 20260830214504 | 91 | 216 | 2.0 | 7.0 | 0.00 | 0.00 | 0.00 | 52 | 1019.4 |
| 20260830214002 | 90 | 215 | 5.0 | 7.0 | 0.00 | 0.00 | 0.00 | 53 | 1019.4 |
| 20260830213503 | 91 | 214 | 2.0 | 7.0 | 0.00 | 0.00 | 0.00 | 54 | 1019.3 |
| 20260830213003 | 91 | 205 | 2.0 | 8.0 | 0.00 | 0.00 | 0.00 | 56 | 1019.4 |
| 20260830212503 | 90 | 232 | 4.0 | 8.0 | 0.00 | 0.00 | 0.00 | 53 | 1019.5 |
| 20260830212004 | 91 | 225 | 2.0 | 5.0 | 0.00 | 0.00 | 0.00 | 55 | 1019.5 |
| 20260830211508 | 91 | 225 | 2.0 | 7.0 | 0.00 | 0.00 | 0.00 | 52 | 1019.4 |
| 20260830211002 | 90 | 226 | 4.0 | 7.0 | 0.00 | 0.00 | 0.00 | 52 | 1019.5 |
| 20260830210505 | 91 | 267 | 4.0 | 10.0 | 0.00 | 0.00 | 0.00 | 51 | 1019.5 |
| 20260830210020 | 91 | 193 | 3.0 | 10.0 | 0.00 | 0.00 | 0.00 | 53 | 1019.6 |
| 20260830205509 | 91 | 215 | 3.0 | 8.0 | 0.00 | 0.00 | 0.00 | 55 | 1019.6 |
| 20260830205008 | 91 | 222 | 3.0 | 8.0 | 0.00 | 0.00 | 0.00 | 54 | 1019.6 |
| 20260830204520 | 91 | 209 | 4.0 | 8.0 | 0.00 | 0.00 | 0.00 | 53 | 1019.6 |
| 20260830204002 | 91 | 141 | 1.0 | 5.0 | 0.00 | 0.00 | 0.00 | 57 | 1019.6 |
| 20260830203503 | 91 | 173 | 1.0 | 6.0 | 0.00 | 0.00 | 0.00 | 51 | 1019.7 |
| 20260830203003 | 90 | 173 | 1.0 | 6.0 | 0.00 | 0.00 | 0.00 | 54 | 1019.8 |
| 20260830202503 | 88 | 163 | 2.0 | 6.0 | 0.00 | 0.00 | 0.00 | 61 | 1019.9 |
| 20260830202003 | 88 | 148 | 2.0 | 8.0 | 0.00 | 0.00 | 0.00 | 58 | 1020.0 |
| 20260830201505 | 89 | 221 | 4.0 | 9.0 | 0.00 | 0.00 | 0.00 | 56 | 1020.1 |
| 20260830201004 | 88 | 124 | 6.0 | 9.0 | 0.00 | 0.00 | 0.00 | 57 | 1020.0 |
| 20260830200507 | 89 | 134 | 3.0 | 9.0 | 0.00 | 0.00 | 0.00 | 57 | 1020.1 |
| 20260830200009 | 90 | 141 | 4.0 | 10.0 | 0.00 | 0.00 | 0.00 | 58 | 1020.4 |
| 20260830195503 | 89 | 132 | 6.0 | 10.0 | 0.00 | 0.00 | 0.00 | 58 | 1020.4 |
| 20260830195005 | 89 | 150 | 3.0 | 8.0 | 0.00 | 0.00 | 0.00 | 56 | 1020.5 |
| 20260830194514 | 90 | 211 | 2.0 | 7.0 | 0.00 | 0.00 | 0.00 | 55 | 1020.6 |
| 20260830194008 | 91 | 152 | 1.0 | 6.0 | 0.00 | 0.00 | 0.00 | 54 | 1020.6 |
| 20260830193509 | 91 | 224 | 2.0 | 8.0 | 0.00 | 0.00 | 0.00 | 57 | 1020.7 |
| 20260830193023 | 90 | 229 | 1.0 | 8.0 | 0.00 | 0.00 | 0.00 | 55 | 1020.9 |
| 20260830192510 | 91 | 205 | 2.0 | 7.0 | 0.00 | 0.00 | 0.00 | 56 | 1020.9 |
| 20260830192003 | 89 | 212 | 1.0 | 10.0 | 0.00 | 0.00 | 0.00 | 57 | 1021.0 |
| 20260830191515 | 90 | 204 | 5.0 | 10.0 | 0.00 | 0.00 | 0.00 | 58 | 1021.0 |
| 20260830191003 | 90 | 235 | 2.0 | 10.0 | 0.00 | 0.00 | 0.00 | 56 | 1021.0 |
| 20260830190503 | 90 | 256 | 3.0 | 10.0 | 0.00 | 0.00 | 0.00 | 56 | 1021.0 |
| 20260830190008 | 90 | 217 | 3.0 | 9.0 | 0.00 | 0.00 | 0.00 | 59 | 1021.0 |
| 20260830185504 | 89 | 148 | 4.0 | 7.0 | 0.00 | 0.00 | 0.00 | 55 | 1021.1 |
| 20260830185008 | 89 | 153 | 3.0 | 7.0 | 0.00 | 0.00 | 0.00 | 57 | 1021.1 |
| 20260830184513 | 88 | 273 | 3.0 | 7.0 | 0.00 | 0.00 | 0.00 | 59 | 1021.1 |
| 20260830184006 | 87 | 209 | 1.0 | 7.0 | 0.00 | 0.00 | 0.00 | 63 | 1021.4 |
| 20260830183505 | 87 | 207 | 2.0 | 8.0 | 0.00 | 0.00 | 0.00 | 61 | 1021.5 |
| 20260830183015 | 89 | 220 | 2.0 | 8.0 | 0.00 | 0.00 | 0.00 | 59 | 1021.5 |
| 20260830182515 | 88 | 203 | 2.0 | 8.0 | 0.00 | 0.00 | 0.00 | 61 | 1021.5 |
| 20260830182011 | 87 | 128 | 2.0 | 7.0 | 0.00 | 0.00 | 0.00 | 61 | 1021.6 |
| 20260830181525 | 86 | 223 | 3.0 | 7.0 | 0.00 | 0.00 | 0.00 | 65 | 1021.7 |
| 20260830181011 | 88 | 264 | 3.0 | 6.0 | 0.00 | 0.00 | 0.00 | 61 | 1021.8 |
| 20260830180502 | 88 | 214 | 2.0 | 7.0 | 0.00 | 0.00 | 0.00 | 61 | 1021.8 |
| 20260830180004 | 87 | 214 | 2.0 | 10.0 | 0.00 | 0.00 | 0.00 | 60 | 1021.9 |
| 20260830175503 | 88 | 158 | 6.0 | 10.0 | 0.00 | 0.00 | 0.00 | 61 | 1021.9 |
| 20260830175005 | 88 | 237 | 3.0 | 11.0 | 0.00 | 0.00 | 0.00 | 62 | 1021.9 |
| 20260830174511 | 87 | 215 | 6.0 | 11.0 | 0.00 | 0.00 | 0.00 | 59 | 1022.0 |
| 20260830174006 | 88 | 202 | 6.0 | 10.0 | 0.00 | 0.00 | 0.00 | 61 | 1022.0 |
| 20260830173507 | 88 | 89 | 2.0 | 9.0 | 0.00 | 0.00 | 0.00 | 60 | 1022.1 |
| 20260830173015 | 88 | 212 | 2.0 | 12.0 | 0.00 | 0.00 | 0.00 | 61 | 1022.2 |
| 20260830172511 | 88 | 225 | 5.0 | 12.0 | 0.00 | 0.00 | 0.00 | 61 | 1022.3 |
| 20260830172007 | 88 | 163 | 4.0 | 12.0 | 0.00 | 0.00 | 0.00 | 63 | 1022.4 |
| 20260830171520 | 88 | 148 | 5.0 | 12.0 | 0.00 | 0.00 | 0.00 | 66 | 1022.5 |
| 20260830171010 | 87 | 198 | 2.0 | 8.0 | 0.00 | 0.00 | 0.00 | 66 | 1022.6 |
| 20260830170512 | 86 | 252 | 2.0 | 9.0 | 0.00 | 0.00 | 0.00 | 65 | 1022.6 |
| 20260830170026 | 86 | 237 | 3.0 | 10.0 | 0.00 | 0.00 | 0.00 | 67 | 1022.7 |
| 20260830165513 | 84 | 228 | 6.0 | 10.0 | 0.00 | 0.00 | 0.00 | 69 | 1022.8 |
| 20260830165019 | 85 | 201 | 5.0 | 12.0 | 0.00 | 0.00 | 0.00 | 68 | 1022.7 |
| 20260830164506 | 86 | 211 | 6.0 | 12.0 | 0.00 | 0.00 | 0.00 | 69 | 1022.8 |
| 20260830164003 | 86 | 217 | 4.0 | 9.0 | 0.00 | 0.00 | 0.00 | 70 | 1022.8 |
| 20260830163506 | 84 | 226 | 5.0 | 10.0 | 0.00 | 0.00 | 0.00 | 70 | 1022.9 |
| 20260830163023 | 85 | 223 | 6.0 | 10.0 | 0.00 | 0.00 | 0.00 | 68 | 1022.9 |
| 20260830162506 | 86 | 219 | 3.0 | 10.0 | 0.00 | 0.00 | 0.00 | 68 | 1022.8 |
| 20260830162006 | 86 | 144 | 3.0 | 10.0 | 0.00 | 0.00 | 0.00 | 67 | 1022.9 |
| 20260830161519 | 86 | 211 | 2.0 | 12.0 | 0.00 | 0.00 | 0.00 | 68 | 1022.9 |
| 20260830161014 | 85 | 211 | 6.0 | 12.0 | 0.00 | 0.00 | 0.00 | 70 | 1022.9 |
| 20260830160511 | 86 | 223 | 6.0 | 10.0 | 0.00 | 0.00 | 0.00 | 69 | 1022.9 |
| 20260830160033 | 86 | 202 | 3.0 | 11.0 | 0.00 | 0.00 | 0.00 | 69 | 1022.9 |
| 20260830155513 | 85 | 215 | 2.0 | 11.0 | 0.00 | 0.00 | 0.00 | 71 | 1022.9 |
| 20260830155015 | 84 | 202 | 5.0 | 13.0 | 0.00 | 0.00 | 0.00 | 72 | 1022.9 |
| 20260830154529 | 84 | 212 | 7.0 | 13.0 | 0.00 | 0.00 | 0.00 | 69 | 1022.9 |
| 20260830154014 | 85 | 156 | 4.0 | 10.0 | 0.00 | 0.00 | 0.00 | 69 | 1023.0 |
| 20260830153515 | 85 | 142 | 4.0 | 10.0 | 0.00 | 0.00 | 0.00 | 70 | 1023.0 |
| 20260830153007 | 85 | 217 | 4.0 | 13.0 | 0.00 | 0.00 | 0.00 | 71 | 1022.9 |
| 20260830152507 | 83 | 195 | 5.0 | 13.0 | 0.00 | 0.00 | 0.00 | 71 | 1022.9 |
| 20260830152007 | 84 | 198 | 6.0 | 11.0 | 0.00 | 0.00 | 0.00 | 71 | 1022.8 |
| 20260830151515 | 84 | 202 | 4.0 | 9.0 | 0.00 | 0.00 | 0.00 | 72 | 1022.8 |
| 20260830151008 | 83 | 229 | 5.0 | 13.0 | 0.00 | 0.00 | 0.00 | 74 | 1022.8 |
| 20260830150509 | 83 | 213 | 4.0 | 13.0 | 0.00 | 0.00 | 0.00 | 73 | 1022.8 |
| 20260830150022 | 84 | 159 | 4.0 | 10.0 | 0.00 | 0.00 | 0.00 | 71 | 1022.8 |
| 20260830145515 | 83 | 180 | 3.0 | 10.0 | 0.00 | 0.00 | 0.00 | 75 | 1022.8 |
| 20260830145013 | 82 | 210 | 6.0 | 10.0 | 0.00 | 0.00 | 0.00 | 74 | 1022.9 |
| 20260830144525 | 82 | 211 | 4.0 | 13.0 | 0.00 | 0.00 | 0.00 | 74 | 1022.9 |
| 20260830144014 | 82 | 212 | 6.0 | 13.0 | 0.00 | 0.00 | 0.00 | 74 | 1022.9 |
| 20260830143512 | 82 | 180 | 5.0 | 12.0 | 0.00 | 0.00 | 0.00 | 74 | 1022.9 |
| 20260830143033 | 82 | 235 | 5.0 | 12.0 | 0.00 | 0.00 | 0.00 | 73 | 1022.8 |
| 20260830142516 | 82 | 215 | 3.0 | 10.0 | 0.00 | 0.00 | 0.00 | 75 | 1022.8 |
| 20260830142016 | 82 | 186 | 2.0 | 10.0 | 0.00 | 0.00 | 0.00 | 77 | 1022.8 |
| 20260830141535 | 82 | 194 | 3.0 | 10.0 | 0.00 | 0.00 | 0.00 | 76 | 1022.8 |
| 20260830141008 | 81 | 209 | 4.0 | 13.0 | 0.00 | 0.00 | 0.00 | 76 | 1022.8 |
| 20260830140506 | 81 | 199 | 6.0 | 13.0 | 0.00 | 0.00 | 0.00 | 76 | 1022.9 |
| 20260830140016 | 81 | 216 | 4.0 | 8.0 | 0.00 | 0.00 | 0.00 | 76 | 1022.9 |
| 20260830135510 | 81 | 211 | 4.0 | 8.0 | 0.00 | 0.00 | 0.00 | 77 | 1022.8 |
| 20260830135008 | 81 | 221 | 4.0 | 6.0 | 0.00 | 0.00 | 0.00 | 76 | 1022.7 |
| 20260830134524 | 81 | 207 | 2.0 | 7.0 | 0.00 | 0.00 | 0.00 | 76 | 1022.7 |
| 20260830134014 | 81 | 148 | 2.0 | 10.0 | 0.00 | 0.00 | 0.00 | 77 | 1022.7 |
| 20260830133515 | 80 | 176 | 1.0 | 10.0 | 0.00 | 0.00 | 0.00 | 78 | 1022.8 |
| 20260830133027 | 80 | 144 | 3.0 | 10.0 | 0.00 | 0.00 | 0.00 | 78 | 1022.8 |
| 20260830132515 | 80 | 185 | 2.0 | 8.0 | 0.00 | 0.00 | 0.00 | 80 | 1022.7 |
| 20260830132013 | 79 | 202 | 3.0 | 8.0 | 0.00 | 0.00 | 0.00 | 80 | 1022.7 |
| 20260830131550 | 79 | 248 | 1.0 | 5.0 | 0.00 | 0.00 | 0.00 | 81 | 1022.6 |
| 20260830131016 | 78 | 144 | 3.0 | 5.0 | 0.00 | 0.00 | 0.00 | 81 | 1022.6 |
| 20260830130516 | 78 | 169 | 2.0 | 7.0 | 0.00 | 0.00 | 0.00 | 83 | 1022.6 |
| 20260830130013 | 77 | 153 | 4.0 | 7.0 | 0.00 | 0.00 | 0.00 | 83 | 1022.6 |
| 20260830125506 | 77 | 147 | 4.0 | 7.0 | 0.00 | 0.00 | 0.00 | 83 | 1022.5 |
| 20260830125010 | 76 | 140 | 3.0 | 7.0 | 0.00 | 0.00 | 0.00 | 85 | 1022.5 |
| 20260830124521 | 76 | 142 | 3.0 | 7.0 | 0.00 | 0.00 | 0.00 | 84 | 1022.4 |
| 20260830124009 | 75 | 119 | 3.0 | 7.0 | 0.00 | 0.00 | 0.00 | 86 | 1022.4 |
| 20260830123502 | 74 | 159 | 4.0 | 7.0 | 0.00 | 0.00 | 0.00 | 87 | 1022.3 |
| 20260830123003 | 74 | 142 | 3.0 | 6.0 | 0.00 | 0.00 | 0.00 | 88 | 1022.3 |
| 20260830122503 | 73 | 130 | 3.0 | 6.0 | 0.00 | 0.00 | 0.00 | 90 | 1022.2 |
| 20260830122002 | 73 | 216 | 3.0 | 4.0 | 0.00 | 0.00 | 0.00 | 91 | 1022.1 |
| 20260830121507 | 72 | 232 | 2.0 | 3.0 | 0.00 | 0.00 | 0.00 | 91 | 1022.1 |
| 20260830121004 | 71 | 240 | 1.0 | 3.0 | 0.00 | 0.00 | 0.00 | 90 | 1021.9 |
| 20260830120503 | 71 | 129 | 0.0 | 3.0 | 0.00 | 0.00 | 0.00 | 90 | 1021.9 |
| 20260830120014 | 71 | 129 | 1.0 | 3.0 | 0.00 | 0.00 | 0.00 | 90 | 1021.8 |
| 20260830115508 | 70 | 161 | 1.0 | 2.0 | 0.00 | 0.00 | 0.00 | 90 | 1021.7 |
| 20260830115008 | 70 | 26 | 0.0 | 2.0 | 0.00 | 0.00 | 0.00 | 90 | 1021.7 |
| 20260830114518 | 70 | 321 | 0.0 | 0.0 | 0.00 | 0.00 | 0.00 | 89 | 1021.7 |
| 20260830114007 | 70 | 40 | 0.0 | 1.0 | 0.00 | 0.00 | 0.00 | 89 | 1021.6 |
| 20260830113512 | 70 | 40 | 0.0 | 3.0 | 0.00 | 0.00 | 0.00 | 89 | 1021.6 |
| 20260830113023 | 70 | 40 | 0.0 | 4.0 | 0.00 | 0.00 | 0.00 | 89 | 1021.6 |
| 20260830112512 | 71 | 360 | 1.0 | 4.0 | 0.00 | 0.00 | 0.00 | 89 | 1021.6 |
| 20260830112016 | 70 | 162 | 0.0 | 2.0 | 0.00 | 0.00 | 0.00 | 89 | 1021.6 |
| 20260830111504 | 70 | 156 | 0.0 | 0.0 | 0.00 | 0.00 | 0.00 | 90 | 1021.5 |
| 20260830111003 | 70 | 156 | 0.0 | 0.0 | 0.00 | 0.00 | 0.00 | 89 | 1021.4 |
| 20260830110504 | 70 | 156 | 0.0 | 0.0 | 0.00 | 0.00 | 0.00 | 89 | 1021.4 |
| 20260830110013 | 70 | 156 | 0.0 | 0.0 | 0.00 | 0.00 | 0.00 | 89 | 1021.4 |
| 20260830105506 | 71 | 156 | 0.0 | 0.0 | 0.00 | 0.00 | 0.00 | 89 | 1021.3 |
| 20260830105003 | 71 | 156 | 0.0 | 0.0 | 0.00 | 0.00 | 0.00 | 89 | 1021.3 |
| 20260830104521 | 71 | 156 | 0.0 | 0.0 | 0.00 | 0.00 | 0.00 | 90 | 1021.3 |
| 20260830104007 | 70 | 156 | 0.0 | 0.0 | 0.00 | 0.00 | 0.00 | 90 | 1021.2 |
| 20260830103508 | 70 | 156 | 0.0 | 1.0 | 0.00 | 0.00 | 0.00 | 90 | 1021.3 |
| 20260830103021 | 70 | 156 | 0.0 | 2.0 | 0.00 | 0.00 | 0.00 | 91 | 1021.3 |
| 20260830102511 | 70 | 156 | 0.0 | 2.0 | 0.00 | 0.00 | 0.00 | 91 | 1021.3 |
| 20260830102012 | 69 | 156 | 1.0 | 2.0 | 0.00 | 0.00 | 0.00 | 91 | 1021.4 |
| 20260830101529 | 69 | 156 | 0.0 | 3.0 | 0.00 | 0.00 | 0.00 | 90 | 1021.3 |
| 20260830101013 | 69 | 156 | 0.0 | 3.0 | 0.00 | 0.00 | 0.00 | 90 | 1021.3 |
| 20260830100513 | 70 | 156 | 1.0 | 3.0 | 0.00 | 0.00 | 0.00 | 91 | 1021.3 |
| 20260830100037 | 69 | 156 | 0.0 | 0.0 | 0.00 | 0.00 | 0.00 | 90 | 1021.2 |
| 20260830095503 | 69 | 156 | 0.0 | 0.0 | 0.00 | 0.00 | 0.00 | 90 | 1021.1 |
| 20260830095003 | 69 | 156 | 0.0 | 0.0 | 0.00 | 0.00 | 0.00 | 90 | 1021.0 |
| 20260830094510 | 69 | 156 | 0.0 | 0.0 | 0.00 | 0.00 | 0.00 | 90 | 1021.0 |
| 20260830094005 | 69 | 156 | 0.0 | 0.0 | 0.00 | 0.00 | 0.00 | 90 | 1021.0 |
| 20260830093511 | 69 | 156 | 0.0 | 0.0 | 0.00 | 0.00 | 0.00 | 89 | 1021.0 |
| 20260830093029 | 69 | 156 | 0.0 | 0.0 | 0.00 | 0.00 | 0.00 | 89 | 1021.0 |
| 20260830092508 | 69 | 156 | 0.0 | 0.0 | 0.00 | 0.00 | 0.00 | 90 | 1021.0 |
| 20260830092009 | 69 | 156 | 0.0 | 2.0 | 0.00 | 0.00 | 0.00 | 90 | 1021.0 |
| 20260830091527 | 69 | 156 | 0.0 | 2.0 | 0.00 | 0.00 | 0.00 | 90 | 1020.9 |
| 20260830091013 | 69 | 156 | 0.0 | 2.0 | 0.00 | 0.00 | 0.00 | 89 | 1021.0 |
| 20260830090512 | 69 | 156 | 0.0 | 2.0 | 0.00 | 0.00 | 0.00 | 89 | 1020.9 |
| 20260830090034 | 70 | 156 | 0.0 | 2.0 | 0.00 | 0.00 | 0.00 | 89 | 1020.9 |
| 20260830085513 | 70 | 156 | 0.0 | 0.0 | 0.00 | 0.00 | 0.00 | 89 | 1020.8 |
| 20260830085016 | 70 | 156 | 0.0 | 0.0 | 0.00 | 0.00 | 0.00 | 89 | 1020.8 |
| 20260830084530 | 70 | 156 | 0.0 | 0.0 | 0.00 | 0.00 | 0.00 | 89 | 1020.8 |
| 20260830084007 | 70 | 156 | 0.0 | 0.0 | 0.00 | 0.00 | 0.00 | 89 | 1020.8 |
| 20260830083504 | 70 | 156 | 0.0 | 1.0 | 0.00 | 0.00 | 0.00 | 89 | 1020.7 |
| 20260830083016 | 70 | 156 | 0.0 | 1.0 | 0.00 | 0.00 | 0.00 | 89 | 1020.8 |
| 20260830082507 | 70 | 156 | 0.0 | 2.0 | 0.00 | 0.00 | 0.00 | 88 | 1020.7 |
| 20260830082007 | 70 | 156 | 0.0 | 3.0 | 0.00 | 0.00 | 0.00 | 88 | 1020.8 |
| 20260830081532 | 70 | 156 | 0.0 | 3.0 | 0.00 | 0.00 | 0.00 | 88 | 1020.8 |
| 20260830081008 | 71 | 156 | 0.0 | 3.0 | 0.00 | 0.00 | 0.00 | 88 | 1020.8 |
| 20260830080513 | 71 | 156 | 1.0 | 3.0 | 0.00 | 0.00 | 0.00 | 88 | 1020.7 |
| 20260830080028 | 71 | 156 | 1.0 | 2.0 | 0.00 | 0.00 | 0.00 | 88 | 1020.8 |
| 20260830075512 | 71 | 156 | 0.0 | 2.0 | 0.00 | 0.00 | 0.00 | 88 | 1020.8 |
| 20260830075017 | 71 | 156 | 0.0 | 2.0 | 0.00 | 0.00 | 0.00 | 88 | 1020.8 |
| 20260830074531 | 71 | 156 | 0.0 | 1.0 | 0.00 | 0.00 | 0.00 | 88 | 1020.8 |
| 20260830074014 | 71 | 156 | 0.0 | 1.0 | 0.00 | 0.00 | 0.00 | 88 | 1020.9 |
| 20260830073517 | 71 | 156 | 0.0 | 1.0 | 0.00 | 0.00 | 0.00 | 87 | 1020.9 |
| 20260830073032 | 71 | 156 | 0.0 | 1.0 | 0.00 | 0.00 | 0.00 | 87 | 1021.0 |
| 20260830072516 | 71 | 156 | 0.0 | 1.0 | 0.00 | 0.00 | 0.00 | 87 | 1021.0 |
| 20260830072008 | 71 | 156 | 0.0 | 1.0 | 0.00 | 0.00 | 0.00 | 87 | 1020.9 |
| 20260830071515 | 71 | 156 | 0.0 | 1.0 | 0.00 | 0.00 | 0.00 | 87 | 1020.9 |
| 20260830071011 | 71 | 156 | 0.0 | 1.0 | 0.00 | 0.00 | 0.00 | 86 | 1020.9 |
| 20260830070510 | 72 | 156 | 0.0 | 1.0 | 0.00 | 0.00 | 0.00 | 86 | 1020.9 |
| 20260830070032 | 72 | 156 | 0.0 | 1.0 | 0.00 | 0.00 | 0.00 | 85 | 1021.0 |
| 20260830065513 | 72 | 156 | 0.0 | 1.0 | 0.00 | 0.00 | 0.00 | 85 | 1020.9 |
| 20260830065013 | 72 | 156 | 0.0 | 2.0 | 0.00 | 0.00 | 0.00 | 84 | 1020.9 |
| 20260830064530 | 73 | 156 | 0.0 | 2.0 | 0.00 | 0.00 | 0.00 | 84 | 1020.9 |
| 20260830064015 | 73 | 156 | 0.0 | 2.0 | 0.00 | 0.00 | 0.00 | 83 | 1021.0 |
| 20260830063513 | 73 | 156 | 0.0 | 3.0 | 0.00 | 0.00 | 0.00 | 83 | 1020.9 |
| 20260830063033 | 74 | 156 | 0.0 | 7.0 | 0.00 | 0.00 | 0.00 | 84 | 1020.9 |
| 20260830062516 | 73 | 156 | 2.0 | 7.0 | 0.00 | 0.00 | 0.00 | 84 | 1020.9 |
| 20260830062017 | 73 | 126 | 2.0 | 4.0 | 0.00 | 0.00 | 0.00 | 85 | 1020.9 |
| 20260830061536 | 73 | 129 | 2.0 | 4.0 | 0.00 | 0.00 | 0.00 | 85 | 1021.0 |
| 20260830061016 | 73 | 128 | 2.0 | 6.0 | 0.00 | 0.00 | 0.00 | 85 | 1021.0 |
| 20260830060518 | 73 | 132 | 2.0 | 6.0 | 0.00 | 0.00 | 0.00 | 85 | 1021.0 |
| 20260830060003 | 72 | 126 | 3.0 | 7.0 | 0.00 | 0.00 | 0.00 | 86 | 1021.0 |
| 20260830055501 | 72 | 105 | 3.0 | 7.0 | 0.00 | 0.00 | 0.00 | 87 | 1021.1 |
| 20260830055002 | 72 | 107 | 0.0 | 3.0 | 0.00 | 0.00 | 0.00 | 86 | 1021.0 |
| 20260830054502 | 72 | 107 | 0.0 | 0.0 | 0.00 | 0.00 | 0.00 | 85 | 1021.0 |
| 20260830054003 | 72 | 107 | 0.0 | 2.0 | 0.00 | 0.00 | 0.00 | 85 | 1021.1 |
| 20260830053503 | 72 | 107 | 0.0 | 2.0 | 0.00 | 0.00 | 0.00 | 85 | 1021.0 |
| 20260830053004 | 72 | 108 | 1.0 | 6.0 | 0.00 | 0.00 | 0.00 | 85 | 1021.1 |
| 20260830052502 | 73 | 98 | 2.0 | 6.0 | 0.00 | 0.00 | 0.00 | 86 | 1021.0 |
| 20260830052002 | 73 | 104 | 3.0 | 7.0 | 0.00 | 0.00 | 0.00 | 85 | 1021.0 |
| 20260830051504 | 72 | 101 | 4.0 | 7.0 | 0.00 | 0.00 | 0.00 | 87 | 1021.0 |
| 20260830051002 | 72 | 112 | 5.0 | 7.0 | 0.00 | 0.00 | 0.00 | 87 | 1021.0 |
| 20260830050502 | 71 | 98 | 4.0 | 7.0 | 0.00 | 0.00 | 0.00 | 88 | 1021.0 |
| 20260830050003 | 71 | 112 | 2.0 | 6.0 | 0.00 | 0.00 | 0.00 | 87 | 1021.0 |
| 20260830045501 | 71 | 168 | 0.0 | 5.0 | 0.00 | 0.00 | 0.00 | 87 | 1021.0 |
| 20260830045002 | 71 | 119 | 0.0 | 2.0 | 0.00 | 0.00 | 0.00 | 88 | 1020.9 |
| 20260830044504 | 71 | 119 | 0.0 | 3.0 | 0.00 | 0.00 | 0.00 | 88 | 1020.9 |
| 20260830044003 | 71 | 119 | 1.0 | 3.0 | 0.00 | 0.00 | 0.00 | 88 | 1020.9 |
| 20260830043503 | 71 | 119 | 0.0 | 0.0 | 0.00 | 0.00 | 0.00 | 88 | 1020.8 |
| 20260830043006 | 71 | 119 | 0.0 | 0.0 | 0.00 | 0.00 | 0.00 | 87 | 1020.9 |
| 20260830042504 | 71 | 119 | 0.0 | 0.0 | 0.00 | 0.00 | 0.00 | 88 | 1020.9 |
| 20260830042003 | 71 | 119 | 0.0 | 0.0 | 0.00 | 0.00 | 0.00 | 87 | 1020.9 |
| 20260830041508 | 71 | 119 | 0.0 | 0.0 | 0.00 | 0.00 | 0.00 | 87 | 1020.9 |
| 20260830041005 | 72 | 119 | 0.0 | 0.0 | 0.00 | 0.00 | 0.00 | 87 | 1020.8 |
| 20260830040504 | 72 | 119 | 0.0 | 3.0 | 0.00 | 0.00 | 0.00 | 87 | 1020.9 |
| 20260830040009 | 72 | 119 | 0.0 | 3.0 | 0.00 | 0.00 | 0.00 | 87 | 1020.8 |
| 20260830035503 | 72 | 119 | 0.0 | 3.0 | 0.00 | 0.00 | 0.00 | 86 | 1020.7 |
| 20260830035003 | 72 | 119 | 0.0 | 3.0 | 0.00 | 0.00 | 0.00 | 86 | 1020.7 |
| 20260830034506 | 72 | 119 | 1.0 | 3.0 | 0.00 | 0.00 | 0.00 | 86 | 1020.7 |
| 20260830034003 | 72 | 119 | 0.0 | 3.0 | 0.00 | 0.00 | 0.00 | 86 | 1020.8 |
| 20260830033503 | 72 | 119 | 0.0 | 3.0 | 0.00 | 0.00 | 0.00 | 86 | 1020.7 |
| 20260830033008 | 73 | 119 | 0.0 | 1.0 | 0.00 | 0.00 | 0.00 | 85 | 1020.8 |
| 20260830032503 | 73 | 119 | 0.0 | 3.0 | 0.00 | 0.00 | 0.00 | 85 | 1020.8 |
| 20260830032002 | 73 | 119 | 1.0 | 3.0 | 0.00 | 0.00 | 0.00 | 85 | 1020.7 |
| 20260830031507 | 73 | 119 | 1.0 | 2.0 | 0.00 | 0.00 | 0.00 | 85 | 1020.6 |
| 20260830031006 | 74 | 119 | 1.0 | 2.0 | 0.00 | 0.00 | 0.00 | 84 | 1020.6 |
| 20260830030503 | 74 | 119 | 0.0 | 2.0 | 0.00 | 0.00 | 0.00 | 83 | 1020.6 |
| 20260830030023 | 74 | 119 | 1.0 | 2.0 | 0.00 | 0.00 | 0.00 | 83 | 1020.5 |
| 20260830025504 | 74 | 119 | 1.0 | 2.0 | 0.00 | 0.00 | 0.00 | 83 | 1020.5 |
| 20260830025002 | 75 | 119 | 0.0 | 2.0 | 0.00 | 0.00 | 0.00 | 83 | 1020.6 |
| 20260830024507 | 75 | 119 | 1.0 | 2.0 | 0.00 | 0.00 | 0.00 | 82 | 1020.5 |
| 20260830024005 | 75 | 119 | 0.0 | 1.0 | 0.00 | 0.00 | 0.00 | 82 | 1020.5 |
| 20260830023502 | 75 | 119 | 0.0 | 2.0 | 0.00 | 0.00 | 0.00 | 82 | 1020.5 |
| 20260830023006 | 75 | 119 | 0.0 | 4.0 | 0.00 | 0.00 | 0.00 | 82 | 1020.5 |
| 20260830022503 | 75 | 119 | 1.0 | 4.0 | 0.00 | 0.00 | 0.00 | 83 | 1020.5 |